[[{"header":{"parameterUnit":"m.s-1","parameterCategory":1,"la1":30.2991,"la2":30.254,"lo1":-89.0895,"lo2":-89.0444,"dy":0.0017,"dx":0.0017,"nx":28,"ny":28,"refTime":"2025-06-19T09:00:00:Z","depth":0,"parameterNumber":2,"parameterNumberName":"U-component_of_WINDS"},"data":[0,0,0,0,0,0,0,0,0,0,0,0,0,0,0,0,0,0,0,0,0,0,0,0,0,0,0,0,0,0,0,0,0,0,0,0,0,0,0,0,0,0,0,0,0,0,0,0,0,0,0,0,0,0,0,0,0,0,3.6274,3.6275,0,3.637,3.6371,3.6372,3.6305,3.6302,3.6299,3.6297,3.6397,3.6402,3.6408,0,0,0,0,0,0,0,0,0,0,0,0,0,3.6033,3.6037,3.6274,3.6275,3.6276,3.637,3.6371,3.6372,3.6306,3.6302,3.6299,3.6295,3.6395,3.6402,3.6408,0,0,0,0,0,0,0,0,0,0,0,0,0,3.6134,3.6039,3.6273,3.6254,3.6253,3.6369,3.6371,3.6373,3.6307,3.6302,3.6298,3.6294,3.6393,3.6401,3.6409,3.655,0,0,3.6434,3.6438,0,0,0,0,0,0,0,0,3.6128,3.6143,3.6256,3.6256,3.6255,3.6321,3.6323,3.6432,3.6308,3.6287,3.6297,3.6291,3.6375,3.6385,3.6413,3.6554,3.6559,3.6435,3.644,3.6443,3.6446,0,0,0,0,0,0,0,3.6121,3.6138,3.6312,3.6257,3.6257,3.6241,3.625,3.6343,3.6355,3.6288,3.6283,3.6296,3.6374,3.6405,3.6415,3.656,3.6435,3.6442,3.6447,3.645,3.6819,3.6823,0,0,0,0,0,0,3.6116,3.6133,3.6309,3.6314,3.6179,3.6249,3.6259,3.6304,3.6354,3.6357,3.6299,3.6292,3.6393,3.6405,3.6418,3.6583,3.6443,3.6451,3.6456,3.6814,3.682,3.6825,0,0,0,0,0,0,3.6111,3.6132,3.6305,3.6223,3.6243,3.6258,3.6309,3.6309,3.6339,3.6362,3.6364,3.6328,3.639,3.6406,3.6516,3.6586,3.6455,3.6462,3.6808,3.6816,3.6822,3.6916,0,0,0,0,0,0,3.6104,3.6131,3.6185,3.6224,3.6248,3.6402,3.6313,3.6314,3.6353,3.6345,3.639,3.6393,3.6388,3.6505,3.6525,3.6595,3.6468,3.6802,3.6811,3.682,3.6907,3.6926,3.6942,0,0,0,0,0,3.6096,3.6208,3.6188,3.6209,3.6315,3.6406,3.642,3.641,3.6359,3.6413,3.6427,3.6392,3.6575,3.6516,3.6538,3.6612,3.6797,3.6809,3.6819,3.6899,3.6922,3.6942,0,0,0,0,0,0,3.6178,3.6213,3.6191,3.6319,3.636,3.6395,3.6462,3.6436,3.6492,3.6482,3.6469,3.648,3.6594,3.6615,3.6548,3.6749,3.6678,3.6694,3.6731,3.6754,3.6771,3.6763,3.6475,0,0,0,0,0,3.621,3.6281,3.6309,3.6419,3.6441,3.6448,3.6488,3.6477,3.6519,3.6536,3.6559,3.6601,3.6667,3.6712,3.6775,3.691,3.6918,3.6972,3.6989,3.7003,3.7017,3.7087,3.711,3.6861,3.6861,3.6861,0,0,3.6279,3.6307,3.6353,3.6436,3.6466,3.6539,3.6463,3.6544,3.6598,3.6548,3.6652,3.6671,3.6717,3.684,3.6895,3.686,3.7087,3.7017,3.7029,3.7034,3.71,3.7124,3.7145,3.6868,3.6867,3.6866,0,0,3.6441,3.647,3.6564,3.6596,3.6642,3.6646,3.6669,3.6707,3.6717,3.6821,3.6785,3.6849,3.6965,3.6998,3.7031,3.7203,3.7172,3.7225,3.7315,3.7384,3.7404,3.7421,3.748,3.7502,3.7238,3.7239,3.7239,0,3.652,3.6628,3.6616,3.6699,3.6736,3.6693,3.6787,3.6819,3.6884,3.691,3.687,3.7013,3.7042,3.717,3.7212,3.7241,3.7265,3.7219,3.7402,3.7419,3.7435,3.7491,3.7514,3.7244,3.7244,3.7243,3.7243,0,3.6722,3.6798,3.6868,3.693,3.6975,3.7064,3.7064,3.7112,3.7097,3.7105,3.721,3.7243,3.731,3.7341,3.7328,3.7467,3.7443,3.7403,3.7331,3.7465,3.7517,3.7539,3.7253,3.7251,3.7249,3.7247,0,0,3.6938,3.6991,3.7017,3.7043,3.7091,3.7149,3.7235,3.7299,3.7339,3.7386,3.7456,3.7554,3.7516,3.7553,3.7544,3.7604,3.7735,3.7556,3.7557,3.7586,3.7888,3.7916,3.7941,3.7716,3.772,3.7723,3.7883,0,3.71,3.7249,3.7239,3.7379,3.7447,3.7407,3.7482,3.7519,3.7529,3.7588,3.7599,3.7667,3.7614,3.7635,3.7694,3.7707,3.7795,3.7696,3.778,3.7783,3.7767,3.7969,3.7999,3.8149,3.7904,3.7907,3.791,0,3.7309,3.736,3.7507,3.7541,3.757,3.7637,3.7694,3.7752,3.7792,3.7795,3.7835,3.7815,3.7901,3.7828,3.7945,3.7878,3.7912,3.7924,3.7929,3.7935,3.7853,3.7978,3.8196,3.8218,3.7942,3.794,3.7937,0,3.7448,3.7554,3.7655,3.7679,3.7723,3.777,3.7791,3.7827,3.7866,3.7917,3.7941,3.8002,3.8035,3.8082,3.8078,3.8026,3.8197,3.8124,3.82,3.82,3.8236,3.8233,3.8461,3.8262,3.8262,3.8261,3.8261,0,3.7629,3.7719,3.7717,3.7779,3.7878,3.7867,3.7965,3.7981,3.8013,3.8076,3.8047,3.8107,3.8099,3.816,3.8158,3.8253,3.827,3.8273,3.8271,3.8274,3.8274,3.8295,3.8283,3.8267,3.8266,3.8265,3.8264,0,3.78,3.7803,3.7909,3.7941,3.7951,3.8023,3.805,3.8108,3.8115,3.8195,3.8213,3.8224,3.8293,3.8295,3.8375,3.8373,3.849,3.8477,3.8475,3.8472,3.8547,3.8539,3.8794,3.8825,3.8609,3.8611,3.8613,0,3.7914,3.7982,3.8021,3.8061,3.8084,3.8149,3.8187,3.8179,3.822,3.827,3.8322,3.8388,3.844,3.8553,3.8568,3.8628,3.8615,3.8701,3.8624,3.8625,3.8613,3.8608,3.8614,3.8715,3.8717,3.8719,3.8721,0,3.8115,3.8112,3.8169,3.8226,3.8273,3.8318,3.8359,3.8394,3.8389,3.8438,3.8507,3.8548,3.8628,3.8694,3.8752,3.8773,3.8746,3.8745,3.8765,3.8768,3.8763,3.8764,3.8513,3.8739,3.8737,3.8736,3.8735,3.8734,3.8259,3.8316,3.8352,3.8416,3.8446,3.8485,3.8539,3.8552,3.861,3.8674,3.8666,3.8743,3.878,3.8855,3.8881,3.8941,3.8911,3.8941,3.8948,3.8955,3.8962,3.8755,3.8952,3.8951,3.8951,3.895,3.895,0,3.8455,3.8476,3.8535,3.8593,3.8643,3.8613,3.8656,3.87,3.8768,3.8805,3.8856,3.8935,3.8998,3.9017,3.9078,3.9122,3.9111,3.9138,3.9134,3.9138,3.8986,3.8961,3.9146,3.9146,3.9146,3.9146,3.9146,3.9146,3.8563,3.8658,3.866,3.8769,3.8789,3.8863,3.889,3.8925,3.8954,3.9043,3.9095,3.9107,3.9137,3.9199,3.9255,3.9259,3.9281,3.9313,3.9312,3.9169,3.9149,3.9131,3.9107,3.9319,3.9319,3.9458,3.946,3.9461]},{"header":{"parameterUnit":"m.s-1","parameterCategory":1,"la1":30.2991,"la2":30.254,"lo1":-89.0895,"lo2":-89.0444,"dy":0.0017,"dx":0.0017,"nx":28,"ny":28,"refTime":"2025-06-19T09:00:00:Z","depth":0,"parameterNumber":3,"parameterNumberName":"V-component_of_WINDS"},"data":[0,0,0,0,0,0,0,0,0,0,0,0,0,0,0,0,0,0,0,0,0,0,0,0,0,0,0,0,0,0,0,0,0,0,0,0,0,0,0,0,0,0,0,0,0,0,0,0,0,0,0,0,0,0,0,0,0,0,2.569,2.569,0,2.5717,2.5717,2.5717,2.5688,2.5687,2.5686,2.5685,2.5712,2.5713,2.5715,0,0,0,0,0,0,0,0,0,0,0,0,0,2.5612,2.5614,2.569,2.569,2.5691,2.5717,2.5717,2.5717,2.5688,2.5687,2.5685,2.5684,2.5711,2.5713,2.5715,0,0,0,0,0,0,0,0,0,0,0,0,0,2.5643,2.5614,2.569,2.5679,2.5679,2.5717,2.5717,2.5718,2.5688,2.5687,2.5685,2.5683,2.571,2.5713,2.5716,2.5766,0,0,2.5724,2.5725,0,0,0,0,0,0,0,0,2.5641,2.5646,2.568,2.568,2.5679,2.5697,2.5699,2.5734,2.5689,2.5685,2.5685,2.5683,2.5708,2.5711,2.572,2.5767,2.5768,2.5724,2.5726,2.5727,2.5727,0,0,0,0,0,0,0,2.5639,2.5645,2.5701,2.5681,2.568,2.5672,2.5675,2.5706,2.5706,2.5685,2.5683,2.5686,2.5708,2.5717,2.572,2.5768,2.5724,2.5726,2.5728,2.5729,2.5856,2.5857,0,0,0,0,0,0,2.5638,2.5643,2.57,2.5701,2.5656,2.5675,2.5678,2.5693,2.5705,2.5705,2.5688,2.5685,2.5713,2.5717,2.5721,2.5779,2.5727,2.5729,2.5731,2.5854,2.5856,2.5858,0,0,0,0,0,0,2.5637,2.5644,2.5699,2.5672,2.5678,2.5678,2.5696,2.5695,2.5704,2.5707,2.5707,2.5698,2.5712,2.5717,2.5754,2.5779,2.573,2.5733,2.5852,2.5854,2.5857,2.5896,0,0,0,0,0,0,2.5635,2.5643,2.5663,2.5672,2.568,2.5732,2.5697,2.5696,2.5709,2.5705,2.5717,2.5717,2.5711,2.575,2.5757,2.5782,2.5735,2.5849,2.5853,2.5856,2.5892,2.5899,2.5906,0,0,0,0,0,2.5632,2.5673,2.5664,2.5671,2.5704,2.5734,2.5738,2.5731,2.5711,2.573,2.5732,2.5716,2.5776,2.5754,2.5761,2.5788,2.5848,2.5852,2.5856,2.5889,2.5898,2.5905,0,0,0,0,0,0,2.5667,2.5674,2.5664,2.571,2.5721,2.5729,2.5753,2.5741,2.5758,2.5754,2.5744,2.5747,2.5786,2.5791,2.5767,2.5836,2.5808,2.5814,2.5831,2.584,2.5846,2.5844,2.5737,0,0,0,0,0,2.568,2.5704,2.5709,2.5749,2.5755,2.5753,2.5766,2.5759,2.577,2.5775,2.578,2.5791,2.5812,2.5826,2.5846,2.5893,2.5894,2.5914,2.5921,2.5926,2.5931,2.5954,2.5963,2.5871,2.5871,2.5871,0,0,2.5708,2.5714,2.573,2.5756,2.5764,2.5788,2.5757,2.5785,2.5802,2.5779,2.5814,2.5818,2.583,2.5871,2.589,2.5876,2.5957,2.5931,2.5936,2.5937,2.5959,2.5968,2.5976,2.5874,2.5873,2.5873,0,0,2.5769,2.5778,2.5811,2.5819,2.5831,2.5829,2.5837,2.5846,2.5847,2.5882,2.5865,2.5886,2.5922,2.5931,2.594,2.6003,2.5989,2.601,2.6045,2.6068,2.6075,2.6081,2.6102,2.611,2.6015,2.6015,2.6015,0,2.5802,2.5838,2.5829,2.5857,2.5868,2.5848,2.5881,2.5889,2.5908,2.5915,2.59,2.5944,2.5951,2.5994,2.6009,2.6017,2.6025,2.6009,2.6074,2.6081,2.6087,2.6107,2.6115,2.6017,2.6017,2.6017,2.6016,0,2.5876,2.5901,2.5926,2.5944,2.5957,2.5988,2.5983,2.5998,2.599,2.5989,2.6024,2.6031,2.6051,2.606,2.6053,2.6102,2.6092,2.6076,2.6048,2.6098,2.6116,2.6124,2.6021,2.602,2.6019,2.6018,0,0,2.5962,2.5973,2.5982,2.5989,2.6,2.6019,2.6048,2.6067,2.6079,2.6092,2.6115,2.6146,2.613,2.614,2.6133,2.6154,2.6201,2.6134,2.6134,2.6145,2.6253,2.6265,2.6274,2.6192,2.6193,2.6194,2.6252,0,2.6023,2.6073,2.6065,2.6112,2.6134,2.6115,2.6139,2.6148,2.6148,2.6167,2.6166,2.6188,2.6166,2.6172,2.6191,2.6191,2.6222,2.6187,2.6212,2.6213,2.6209,2.6284,2.6297,2.6351,2.6259,2.626,2.6261,0,2.6101,2.6116,2.6166,2.6171,2.618,2.6203,2.6219,2.6237,2.6246,2.6244,2.6255,2.6244,2.6271,2.6243,2.628,2.6256,2.6266,2.6268,2.627,2.6271,2.624,2.6287,2.6368,2.6376,2.6273,2.6272,2.6271,0,2.6157,2.619,2.6223,2.6229,2.6238,2.6253,2.6258,2.6265,2.6277,2.629,2.6297,2.6314,2.6323,2.6336,2.633,2.631,2.6367,2.6339,2.6366,2.6366,2.6379,2.6378,2.6462,2.6386,2.6386,2.6386,2.6386,0,2.6226,2.6257,2.6248,2.6269,2.6302,2.6292,2.6325,2.6327,2.6333,2.6353,2.6338,2.6356,2.6347,2.6365,2.636,2.639,2.6395,2.6393,2.6392,2.6395,2.6395,2.64,2.6396,2.6388,2.6388,2.6387,2.6387,0,2.6294,2.629,2.6325,2.6329,2.633,2.6355,2.6358,2.6377,2.6375,2.64,2.6405,2.6402,2.6422,2.6417,2.6439,2.6436,2.6474,2.6468,2.6471,2.6469,2.6495,2.6493,2.6586,2.6597,2.6515,2.6516,2.6516,0,2.6338,2.6361,2.6367,2.6379,2.6384,2.6404,2.6415,2.6406,2.6418,2.6429,2.6446,2.6465,2.6479,2.6512,2.6511,2.6527,2.6521,2.6552,2.6523,2.6525,2.652,2.6519,2.652,2.6558,2.6559,2.656,2.656,0,2.6416,2.6412,2.6428,2.6444,2.6457,2.6469,2.6479,2.649,2.6481,2.6495,2.6515,2.6526,2.6548,2.6566,2.6581,2.6584,2.6571,2.6569,2.6576,2.6579,2.6579,2.6578,2.6485,2.6567,2.6567,2.6566,2.6566,2.6566,2.6473,2.6491,2.6498,2.6516,2.6523,2.6532,2.6549,2.6549,2.6566,2.6582,2.6576,2.6598,2.6605,2.6623,2.6629,2.6646,2.6634,2.6644,2.6647,2.6649,2.6652,2.6577,2.6649,2.6648,2.6648,2.6648,2.6648,0,2.6548,2.6551,2.6568,2.6582,2.6597,2.6582,2.6592,2.6605,2.6625,2.6632,2.6646,2.6668,2.6686,2.6686,2.6702,2.6715,2.6709,2.672,2.6718,2.6719,2.6662,2.6654,2.6724,2.6724,2.6724,2.6724,2.6724,2.6724,2.659,2.662,2.6617,2.665,2.6652,2.6674,2.6681,2.6689,2.6695,2.672,2.6734,2.6734,2.6738,2.6754,2.6768,2.6768,2.6774,2.6786,2.6784,2.6731,2.6723,2.6716,2.6708,2.6788,2.6788,2.6838,2.6839,2.6839]}]]